191P/McNaught (2007)

Japanese version
Home page
Total 5,708 html files since Dec. 4, 1995
Updated on April 4, 2008

---------------------------------------------------------------------

* Profile

Designation 191P/2007 N1
Discovery Date July 10, 2007
Magnitude 17.7 mag
Discoverer R. H. McNaught (Siding Spring)

* Pictures

* Orbital Elements

Epoch 2007 Sept. 17.0 TT = JDT 2454360.5
T 2007 Sept. 13.08711 TT                                MPC
q   2.0479348            (2000.0)            P               Q
n   0.14852351     Peri.  274.16160     +0.92434588     -0.35250857
a   3.5313377      Node   106.52894     +0.38155559     +0.85413084
e   0.4200683      Incl.    8.76118     -0.00015313     +0.38235874
P   6.64

* Finding Charts

* Magnitudes Graph

        m1 = 9.0 + 5 log d + 20.0 log r(t - 70)

---------------------------------------------------------------------

The orbital elements are published on M.P.E.C. 2007-R04.
The charts are made with StellaNavigator Ver.2.0 for Windows (AstroArts / ASCII).
The magnitudes graphs are made with Comet for Windows.

---------------------------------------------------------------------

Copyright(C) 1995-2007 Seiichi Yoshida (comet@aerith.net). All rights reserved.